FW8918 Weather Reports


time (UTC)temp
C
wind
direction
speed
KPH
gust
KPH
rain 1hr
cm
rain 24hr
cm
rain mn
cm
humidity
%
barometer
mb
20260505041543 3 0 0.0 0.0 0.00 0.00 0.00 93 1013.1
20260505040036 3 0 0.0 0.0 0.00 0.00 0.00 93 1013.1
20260505034530 4 0 0.0 0.0 0.00 0.00 0.00 93 1013.1
20260505033032 4 0 0.0 0.0 0.00 0.00 0.00 93 1013.2
20260505031532 4 0 0.0 0.0 0.00 0.00 0.00 92 1013.2
20260505030028 5 0 0.0 0.0 0.00 0.00 0.00 93 1013.3
20260505024529 5 316 0.0 1.6 0.00 0.00 0.00 93 1013.3
20260505023031 5 291 0.0 3.2 0.00 0.00 0.00 93 1013.4
20260505021531 5 0 0.0 0.0 0.00 0.00 0.00 92 1013.6
20260505020045 5 0 0.0 0.0 0.00 0.00 0.00 92 1013.5
20260505014531 5 0 0.0 0.0 0.00 0.00 0.00 92 1013.7
20260505013028 5 0 0.0 1.6 0.00 0.00 0.00 92 1013.8
20260505011533 5 0 0.0 1.6 0.00 0.00 0.00 92 1013.9
20260505010032 5 0 0.0 1.6 0.00 0.00 0.00 92 1013.9
20260505004531 5 0 0.0 1.6 0.00 0.00 0.00 92 1014.1
20260505003031 5 0 0.0 1.6 0.00 0.00 0.00 92 1014.1
20260505001533 5 0 0.0 0.0 0.00 0.00 0.00 91 1014.3
20260505000037 5 0 0.0 3.2 0.00 0.00 0.00 92 1014.3
20260504234528 5 0 0.0 0.0 0.00 0.05 0.00 92 1014.2
20260504233028 5 0 0.0 0.0 0.00 0.05 0.00 92 1014.1
20260504231533 5 0 0.0 0.0 0.00 0.05 0.00 91 1014.2
20260504230031 5 0 0.0 0.0 0.00 0.05 0.00 91 1014.1
20260504224532 5 0 0.0 0.0 0.00 0.08 0.00 91 1014.2
20260504223031 5 0 0.0 0.0 0.00 0.08 0.00 91 1014.2
20260504221528 5 0 0.0 0.0 0.00 0.08 0.00 91 1014.3
20260504220028 5 0 0.0 0.0 0.00 0.08 0.00 91 1014.2
20260504214539 5 0 0.0 0.0 0.00 0.15 0.08 90 1014.3
20260504213030 5 0 0.0 0.0 0.00 0.15 0.08 90 1014.4
20260504211530 5 0 0.0 0.0 0.00 0.15 0.08 89 1014.3
20260504210030 6 0 0.0 0.0 0.00 0.15 0.08 89 1014.5
20260504204529 6 0 0.0 0.0 0.00 0.28 0.08 88 1014.5
20260504203034 6 0 0.0 0.0 0.00 0.28 0.08 88 1014.5
20260504201529 6 0 0.0 1.6 0.00 0.28 0.08 87 1014.6
20260504200033 6 0 0.0 3.2 0.00 0.28 0.08 87 1014.6
20260504194528 7 0 0.0 3.2 0.00 0.33 0.08 85 1014.6
20260504193030 7 303 0.0 6.4 0.00 0.33 0.08 85 1014.6
20260504191528 7 295 1.6 6.4 0.00 0.33 0.08 83 1014.5
20260504190031 7 267 1.6 11.3 0.00 0.33 0.08 82 1014.4
20260504184535 8 0 3.2 6.4 0.00 0.46 0.08 80 1014.2
20260504183035 8 309 3.2 14.5 0.00 0.46 0.08 80 1014.3
20260504181528 8 311 4.8 11.3 0.00 0.46 0.08 79 1014.3
20260504180028 8 297 8.0 14.5 0.00 0.46 0.08 79 1014.3
20260504174527 8 293 3.2 12.9 0.00 0.51 0.08 79 1014.3
20260504173030 8 292 4.8 14.5 0.00 0.51 0.08 77 1014.5
20260504171528 8 315 4.8 19.3 0.00 0.51 0.08 78 1014.3
20260504081529 8 293 8.0 17.7 0.00 0.58 0.08 84 1013.0
20260504044528 6 309 3.2 11.3 0.00 0.58 0.08 96 1010.9
20260504043030 6 313 1.6 12.9 0.00 0.58 0.08 96 1010.7